Fort Rucker / Ozark, AL

4:50 AM CDT on June 29, 2017 (GMT -0500)
Fort Rucker / Ozark

Weather History for KLOR - April, 2014

Change the Weather History Date:

Wednesday, April 16, 2014

  Actual Average (KOZR) Record (KOZR)
Temperature  
Mean Temperature 52 °F -  
Max Temperature 66 °F 74 °F 86 °F (2013)
Min Temperature 37 °F 51 °F 36 °F (2014)
Degree Days  
Heating Degree Days 14    
Growing Degree Days 2 (Base 50)    
Moisture  
Dew Point 33 °F    
Average Humidity 56    
Maximum Humidity 79    
Minimum Humidity 26    
Precipitation  
Precipitation 0.00 in - - ()
Sea Level Pressure  
Sea Level Pressure 30.18 in    
Wind  
Wind Speed - (North)    
Max Wind Speed -    
Max Gust Speed -    
Visibility 10 miles    
Events      
Averages and records for this station are not official NWS values.
T = Trace of Precipitation, MM = Missing Value Source: NWS Daily Summary

Daily Weather History Graph

Daily Weather History Graph

Search for Another Location

Airport or City:

Trip Planner

Search our weather history database for the weather conditions in past years. The results will help you decide how hot, cold, wet, or windy it might be!

Date:

Astronomy

Apr. 16, 2014 Rise Set
Actual Time 6:13 AM CDT 7:12 PM CDT
Civil Twilight 5:48 AM CDT 7:37 PM CDT
Nautical Twilight 5:19 AM CDT 8:06 PM CDT
Astronomical Twilight 4:48 AM CDT 8:37 PM CDT
Moon 8:49 PM CDT (4/16) 7:04 AM CDT (4/16)
Length of Visible Light 13h 48m
Length of Day
12h 58m
Full, 98% of the Moon is Illuminated
Apr 16
Full
Apr 22
Last Quarter
Apr 29
New
May 6
First Quarter
May 14
Full

Hourly Weather History & Observations

Time (CDT) Temp. Dew Point Humidity Pressure Visibility Wind Dir Wind Speed Gust Speed Precip Events Conditions
12:53 AM 41.0 °F 33.1 °F 73% 30.15 in 10.0 mi North - - N/A   Clear
1:53 AM 39.0 °F 33.1 °F 79% 30.16 in 10.0 mi North - - N/A   Clear
2:53 AM 39.0 °F 32.0 °F 76% 30.15 in - North - - N/A   Clear
3:53 AM 39.0 °F 30.9 °F 73% 30.15 in - North - - N/A   Clear
4:53 AM 37.9 °F 30.0 °F 73% 30.15 in - North - - N/A   Clear
5:53 AM 37.0 °F 28.9 °F 73% 30.18 in - North - - N/A   Clear
6:53 AM 37.9 °F 30.0 °F 73% 30.19 in - North - - N/A   Clear
7:53 AM 42.1 °F 30.9 °F 65% 30.19 in - North - - N/A   Clear
8:53 AM 46.0 °F 30.9 °F 56% 30.22 in - North - - N/A   Clear
9:53 AM 51.1 °F 30.9 °F 46% 30.24 in 10.0 mi North - - N/A   Clear
10:53 AM 54.0 °F 30.9 °F 41% 30.25 in 10.0 mi North - - N/A   Clear
11:53 AM 57.0 °F 32.0 °F 39% 30.24 in - North - - N/A   Clear
1:53 PM 63.0 °F 30.9 °F 30% 30.19 in 10.0 mi North - - N/A   Clear
2:53 PM 64.0 °F 30.9 °F 29% 30.16 in 10.0 mi North - - N/A   Clear
3:53 PM 66.0 °F 30.9 °F 27% 30.14 in 10.0 mi North - - N/A   Clear
4:53 PM 66.0 °F 30.0 °F 26% 30.14 in 10.0 mi North - - N/A   Clear
5:53 PM 64.9 °F 32.0 °F 29% 30.14 in 10.0 mi North - - N/A   Clear
6:53 PM 61.0 °F 33.1 °F 35% 30.15 in 10.0 mi North - - N/A   Clear
7:53 PM 55.0 °F 36.0 °F 49% 30.18 in 10.0 mi North - - N/A   Clear
8:53 PM 48.9 °F 39.9 °F 71% 30.20 in 10.0 mi North - - N/A   Clear
9:53 PM 48.0 °F 41.0 °F 77% 30.21 in 10.0 mi North - - N/A   Clear
10:53 PM 50.0 °F 39.9 °F 68% 30.21 in 10.0 mi North - - N/A   Clear
11:53 PM 50.0 °F 41.0 °F 71% 30.23 in 10.0 mi North - - N/A   Clear